[[{"header":{"parameterUnit":"m.s-1","parameterCategory":1,"la1":30.2991,"la2":30.254,"lo1":-89.0895,"lo2":-89.0444,"dx":0.0017,"dy":0.0017,"nx":28,"ny":28,"refTime":"2022-11-05T21:00:00:Z","depth":0,"parameterNumber":2,"parameterNumberName":"U-component_of_WINDS"},"data":[0,0,0,0,0,0,0,0,0,0,0,0,0,0,0,0,0,0,0,0,0,0,0,0,0,0,0,0,0,0,0,0,0,0,0,0,0,0,0,0,0,0,0,0,0,0,0,0,0,0,0,0,0,0,0,0,0,0,-0.573,-0.573,0,-0.5746,-0.5746,-0.5746,-0.572,-0.5719,-0.5718,-0.5717,-0.5735,-0.5737,-0.5738,0,0,0,0,0,0,0,0,0,0,0,0,0,-0.5681,-0.5682,-0.573,-0.573,-0.5731,-0.5746,-0.5746,-0.5746,-0.572,-0.5719,-0.5718,-0.5717,-0.5735,-0.5736,-0.5738,0,0,0,0,0,0,0,0,0,0,0,0,0,-0.57,-0.5682,-0.573,-0.5719,-0.5719,-0.5745,-0.5746,-0.5746,-0.572,-0.5719,-0.5717,-0.5716,-0.5734,-0.5736,-0.5738,-0.5777,0,0,-0.5744,-0.5745,0,0,0,0,0,0,0,0,-0.5699,-0.5702,-0.5721,-0.572,-0.5719,-0.5729,-0.5735,-0.5757,-0.572,-0.572,-0.5717,-0.5716,-0.5735,-0.5736,-0.5742,-0.5778,-0.5779,-0.5744,-0.5746,-0.5746,-0.5747,0,0,0,0,0,0,0,-0.5697,-0.5701,-0.5736,-0.5721,-0.572,-0.5714,-0.5716,-0.5739,-0.5735,-0.572,-0.5718,-0.572,-0.5734,-0.574,-0.5743,-0.5779,-0.5744,-0.5746,-0.5747,-0.5748,-0.5848,-0.5849,0,0,0,0,0,0,-0.5697,-0.57,-0.5736,-0.5737,-0.5705,-0.5716,-0.5718,-0.5728,-0.5734,-0.5734,-0.5721,-0.5718,-0.5738,-0.574,-0.5743,-0.579,-0.5746,-0.5748,-0.5749,-0.5846,-0.5848,-0.585,0,0,0,0,0,0,-0.5696,-0.57,-0.5735,-0.5718,-0.5722,-0.5719,-0.573,-0.5729,-0.5735,-0.5735,-0.5734,-0.5728,-0.5737,-0.574,-0.5769,-0.579,-0.5749,-0.5751,-0.5845,-0.5847,-0.5849,-0.5884,0,0,0,0,0,0,-0.5695,-0.57,-0.5715,-0.5718,-0.5723,-0.576,-0.5731,-0.573,-0.5738,-0.5735,-0.5742,-0.5742,-0.5736,-0.5766,-0.5771,-0.5792,-0.5752,-0.5843,-0.5846,-0.5848,-0.5881,-0.5887,-0.5892,0,0,0,0,0,-0.5693,-0.5724,-0.5716,-0.572,-0.5741,-0.5762,-0.5764,-0.5756,-0.574,-0.5755,-0.5755,-0.5742,-0.5787,-0.5769,-0.5774,-0.5797,-0.5842,-0.5845,-0.5848,-0.5878,-0.5886,-0.5892,0,0,0,0,0,0,-0.5725,-0.5725,-0.5715,-0.5748,-0.5755,-0.5757,-0.5776,-0.5765,-0.5777,-0.5774,-0.5764,-0.5766,-0.5797,-0.5799,-0.578,-0.5835,-0.5811,-0.5816,-0.5833,-0.584,-0.5845,-0.5845,-0.5754,0,0,0,0,0,-0.5735,-0.5751,-0.5751,-0.578,-0.5784,-0.5779,-0.5788,-0.5781,-0.5788,-0.5791,-0.5793,-0.5801,-0.5817,-0.5828,-0.5843,-0.588,-0.5882,-0.5898,-0.5904,-0.5908,-0.5913,-0.5934,-0.5941,-0.5861,-0.5861,-0.5861,0,0,-0.5758,-0.576,-0.5771,-0.5787,-0.5791,-0.5809,-0.5782,-0.5802,-0.5816,-0.5795,-0.5822,-0.5823,-0.5832,-0.5865,-0.588,-0.5868,-0.5935,-0.5913,-0.5916,-0.5919,-0.5938,-0.5946,-0.5953,-0.5863,-0.5863,-0.5862,0,0,-0.5808,-0.5811,-0.5836,-0.5841,-0.5847,-0.5844,-0.585,-0.5854,-0.5854,-0.588,-0.5865,-0.5881,-0.5909,-0.5915,-0.5922,-0.5974,-0.5963,-0.5979,-0.601,-0.603,-0.6037,-0.6042,-0.6062,-0.607,-0.5983,-0.5983,-0.5984,0,-0.5836,-0.5862,-0.5851,-0.5872,-0.588,-0.586,-0.5886,-0.5891,-0.5903,-0.5909,-0.5895,-0.5929,-0.5933,-0.5968,-0.5981,-0.5987,-0.5994,-0.598,-0.6036,-0.6042,-0.6047,-0.6066,-0.6074,-0.5986,-0.5985,-0.5985,-0.5985,0,-0.5896,-0.5914,-0.5934,-0.5945,-0.5954,-0.5978,-0.5971,-0.5982,-0.5974,-0.5972,-0.6,-0.6003,-0.6019,-0.6026,-0.6019,-0.606,-0.6053,-0.6038,-0.6015,-0.6057,-0.6075,-0.6082,-0.5988,-0.5988,-0.5987,-0.5987,0,0,-0.597,-0.5973,-0.598,-0.5985,-0.599,-0.6005,-0.6027,-0.6041,-0.6051,-0.6059,-0.6079,-0.6102,-0.6088,-0.6096,-0.6089,-0.6106,-0.6149,-0.6089,-0.6089,-0.6102,-0.6197,-0.6209,-0.6218,-0.614,-0.6142,-0.6143,-0.6196,0,-0.6021,-0.606,-0.605,-0.6088,-0.6105,-0.6086,-0.6106,-0.6112,-0.611,-0.6125,-0.6123,-0.614,-0.6119,-0.6124,-0.6141,-0.614,-0.6168,-0.6136,-0.616,-0.6161,-0.6161,-0.6227,-0.6241,-0.6291,-0.6203,-0.6204,-0.6205,0,-0.6087,-0.6097,-0.6137,-0.614,-0.6147,-0.6164,-0.6177,-0.619,-0.6196,-0.6194,-0.6202,-0.6192,-0.6214,-0.6189,-0.6221,-0.6199,-0.6208,-0.621,-0.6211,-0.6215,-0.6188,-0.6235,-0.6307,-0.6316,-0.6216,-0.6215,-0.6214,0,-0.6139,-0.6162,-0.6189,-0.6194,-0.6197,-0.621,-0.6212,-0.6216,-0.6226,-0.6236,-0.6242,-0.6255,-0.6263,-0.6274,-0.6267,-0.6249,-0.6301,-0.6275,-0.6301,-0.6301,-0.6315,-0.6315,-0.6392,-0.6317,-0.6317,-0.6317,-0.6316,0,-0.6199,-0.6225,-0.6213,-0.623,-0.6258,-0.6246,-0.6274,-0.6274,-0.6278,-0.6296,-0.6279,-0.6296,-0.6284,-0.63,-0.6295,-0.6323,-0.6326,-0.6326,-0.6325,-0.6329,-0.6329,-0.6336,-0.6334,-0.6319,-0.6318,-0.6318,-0.6317,0,-0.6263,-0.6255,-0.6284,-0.6284,-0.6284,-0.6305,-0.6306,-0.6322,-0.6318,-0.634,-0.6345,-0.6339,-0.6357,-0.6351,-0.637,-0.6366,-0.6403,-0.6396,-0.6401,-0.64,-0.6427,-0.6426,-0.6514,-0.6526,-0.6441,-0.6442,-0.6442,0,-0.6303,-0.6322,-0.6324,-0.6334,-0.6337,-0.6353,-0.6362,-0.635,-0.636,-0.6368,-0.6383,-0.6399,-0.6412,-0.6441,-0.644,-0.6454,-0.6449,-0.6479,-0.6451,-0.6455,-0.6452,-0.6452,-0.6454,-0.6485,-0.6486,-0.6487,-0.6487,0,-0.6376,-0.6371,-0.6384,-0.6395,-0.6406,-0.6415,-0.6423,-0.6432,-0.642,-0.6433,-0.645,-0.646,-0.6478,-0.6495,-0.6508,-0.6511,-0.6498,-0.6496,-0.6503,-0.6509,-0.6512,-0.6512,-0.6418,-0.6494,-0.6494,-0.6493,-0.6493,-0.6493,-0.643,-0.6447,-0.645,-0.6466,-0.6469,-0.6477,-0.6492,-0.6489,-0.6504,-0.6518,-0.651,-0.653,-0.6536,-0.6551,-0.6556,-0.6572,-0.6561,-0.6571,-0.6574,-0.6577,-0.6582,-0.6507,-0.6574,-0.6574,-0.6574,-0.6574,-0.6574,0,-0.6504,-0.6505,-0.6519,-0.6529,-0.6541,-0.6526,-0.6533,-0.6545,-0.6563,-0.6568,-0.658,-0.66,-0.6616,-0.6615,-0.663,-0.6643,-0.6638,-0.6648,-0.6648,-0.6649,-0.659,-0.6583,-0.6652,-0.6652,-0.6652,-0.6652,-0.6652,-0.6652,-0.6544,-0.6571,-0.6566,-0.6596,-0.6596,-0.6616,-0.6622,-0.6628,-0.6633,-0.6656,-0.6668,-0.6667,-0.667,-0.6685,-0.6699,-0.6698,-0.6705,-0.6718,-0.6715,-0.6661,-0.6653,-0.6646,-0.664,-0.6719,-0.6719,-0.6773,-0.6774,-0.6774]},{"header":{"parameterUnit":"m.s-1","parameterCategory":1,"la1":30.2991,"la2":30.254,"lo1":-89.0895,"lo2":-89.0444,"dx":0.0017,"dy":0.0017,"nx":28,"ny":28,"refTime":"2022-11-05T21:00:00:Z","depth":0,"parameterNumber":3,"parameterNumberName":"V-component_of_WINDS"},"data":[0,0,0,0,0,0,0,0,0,0,0,0,0,0,0,0,0,0,0,0,0,0,0,0,0,0,0,0,0,0,0,0,0,0,0,0,0,0,0,0,0,0,0,0,0,0,0,0,0,0,0,0,0,0,0,0,0,0,-1.6734,-1.6735,0,-1.6754,-1.6754,-1.6754,-1.674,-1.674,-1.6739,-1.6738,-1.6755,-1.6756,-1.6757,0,0,0,0,0,0,0,0,0,0,0,0,0,-1.6684,-1.6685,-1.6734,-1.6735,-1.6735,-1.6753,-1.6754,-1.6754,-1.674,-1.674,-1.6739,-1.6738,-1.6755,-1.6756,-1.6757,0,0,0,0,0,0,0,0,0,0,0,0,0,-1.6705,-1.6685,-1.6734,-1.673,-1.673,-1.6753,-1.6754,-1.6754,-1.6741,-1.674,-1.6739,-1.6738,-1.6755,-1.6756,-1.6758,-1.6785,0,0,-1.6762,-1.6763,0,0,0,0,0,0,0,0,-1.6703,-1.6706,-1.6731,-1.6731,-1.6731,-1.6744,-1.6742,-1.6764,-1.6741,-1.6736,-1.6738,-1.6737,-1.6752,-1.6754,-1.6759,-1.6786,-1.6786,-1.6762,-1.6763,-1.6764,-1.6764,0,0,0,0,0,0,0,-1.6702,-1.6706,-1.6742,-1.6731,-1.6731,-1.6727,-1.6729,-1.6746,-1.6749,-1.6737,-1.6736,-1.6738,-1.6752,-1.6758,-1.6759,-1.6787,-1.6762,-1.6764,-1.6765,-1.6765,-1.6837,-1.6838,0,0,0,0,0,0,-1.6701,-1.6704,-1.6741,-1.6742,-1.6715,-1.6729,-1.6731,-1.674,-1.6749,-1.6749,-1.6739,-1.6738,-1.6756,-1.6758,-1.676,-1.6793,-1.6764,-1.6765,-1.6766,-1.6836,-1.6838,-1.6839,0,0,0,0,0,0,-1.67,-1.6705,-1.674,-1.6723,-1.6727,-1.673,-1.6741,-1.6741,-1.6747,-1.6751,-1.6751,-1.6745,-1.6755,-1.6758,-1.6779,-1.6793,-1.6766,-1.6767,-1.6835,-1.6837,-1.6838,-1.6859,0,0,0,0,0,0,-1.6699,-1.6704,-1.6715,-1.6724,-1.6728,-1.676,-1.6742,-1.6742,-1.675,-1.6748,-1.6756,-1.6756,-1.6755,-1.6777,-1.6781,-1.6795,-1.6769,-1.6834,-1.6836,-1.6838,-1.6857,-1.6861,-1.6864,0,0,0,0,0,-1.6697,-1.672,-1.6716,-1.672,-1.6742,-1.6761,-1.6763,-1.6762,-1.6751,-1.6762,-1.6764,-1.6756,-1.6791,-1.6779,-1.6783,-1.6798,-1.6833,-1.6835,-1.6837,-1.6855,-1.686,-1.6864,0,0,0,0,0,0,-1.6711,-1.672,-1.6716,-1.6742,-1.6751,-1.6758,-1.6772,-1.6767,-1.6778,-1.6775,-1.6772,-1.6774,-1.6796,-1.6799,-1.6786,-1.6825,-1.681,-1.6814,-1.6823,-1.6827,-1.6831,-1.6829,-1.677,0,0,0,0,0,-1.6718,-1.6733,-1.674,-1.6762,-1.6767,-1.6769,-1.6777,-1.6775,-1.6783,-1.6786,-1.679,-1.6798,-1.6811,-1.6819,-1.6831,-1.6857,-1.6859,-1.687,-1.6873,-1.6876,-1.6879,-1.6894,-1.6899,-1.6846,-1.6846,-1.6846,0,0,-1.6731,-1.6738,-1.6747,-1.6765,-1.6772,-1.6787,-1.6772,-1.6788,-1.6799,-1.6788,-1.6809,-1.6812,-1.6821,-1.6845,-1.6856,-1.6848,-1.6894,-1.6879,-1.6882,-1.6883,-1.6897,-1.6901,-1.6906,-1.6848,-1.6847,-1.6847,0,0,-1.6762,-1.6769,-1.6788,-1.6796,-1.6806,-1.6808,-1.6812,-1.6821,-1.6823,-1.6844,-1.6836,-1.6849,-1.6871,-1.6878,-1.6884,-1.6919,-1.6912,-1.6923,-1.6942,-1.6957,-1.6961,-1.6964,-1.6977,-1.6982,-1.6926,-1.6926,-1.6926,0,-1.6776,-1.68,-1.6799,-1.6817,-1.6825,-1.6817,-1.6837,-1.6843,-1.6857,-1.6862,-1.6854,-1.6882,-1.6887,-1.6913,-1.6922,-1.6927,-1.6932,-1.6922,-1.696,-1.6964,-1.6967,-1.6979,-1.6984,-1.6927,-1.6927,-1.6927,-1.6927,0,-1.6817,-1.6834,-1.6848,-1.6863,-1.6873,-1.6891,-1.6892,-1.6902,-1.69,-1.6902,-1.6923,-1.6929,-1.6943,-1.6949,-1.6946,-1.6974,-1.697,-1.6961,-1.6946,-1.6974,-1.6985,-1.6989,-1.6929,-1.6929,-1.6928,-1.6928,0,0,-1.6857,-1.6872,-1.6877,-1.6884,-1.6896,-1.6908,-1.6926,-1.6941,-1.6949,-1.6959,-1.6974,-1.6993,-1.6986,-1.6993,-1.6991,-1.7003,-1.7031,-1.6993,-1.6993,-1.7,-1.7063,-1.707,-1.7075,-1.7027,-1.7028,-1.7029,-1.7063,0,-1.6889,-1.6922,-1.6922,-1.6952,-1.6967,-1.6961,-1.6977,-1.6985,-1.6988,-1.7001,-1.7003,-1.7017,-1.7006,-1.701,-1.7023,-1.7025,-1.7044,-1.7023,-1.704,-1.7041,-1.7038,-1.7081,-1.7088,-1.712,-1.7067,-1.7068,-1.7068,0,-1.693,-1.6943,-1.6975,-1.6986,-1.6992,-1.7006,-1.702,-1.7032,-1.7042,-1.7043,-1.7052,-1.7048,-1.7066,-1.7051,-1.7075,-1.7061,-1.7068,-1.7071,-1.7072,-1.7073,-1.7056,-1.7083,-1.713,-1.7134,-1.7075,-1.7075,-1.7074,0,-1.6956,-1.6981,-1.7004,-1.701,-1.7023,-1.7033,-1.7039,-1.7048,-1.7056,-1.7068,-1.7074,-1.7087,-1.7094,-1.7104,-1.7103,-1.7092,-1.7129,-1.7113,-1.713,-1.713,-1.7137,-1.7137,-1.7185,-1.7142,-1.7142,-1.7142,-1.7142,0,-1.6992,-1.7012,-1.7016,-1.703,-1.7052,-1.7052,-1.7073,-1.7078,-1.7086,-1.71,-1.7095,-1.7108,-1.7107,-1.712,-1.712,-1.7141,-1.7144,-1.7145,-1.7145,-1.7146,-1.7145,-1.715,-1.7148,-1.7143,-1.7143,-1.7143,-1.7142,0,-1.7024,-1.7028,-1.7053,-1.7063,-1.7066,-1.7082,-1.7091,-1.7104,-1.7106,-1.7125,-1.7129,-1.7133,-1.7148,-1.7149,-1.7166,-1.7166,-1.7191,-1.7189,-1.7189,-1.7188,-1.7204,-1.7203,-1.7257,-1.7265,-1.7217,-1.7217,-1.7218,0,-1.7047,-1.7062,-1.7075,-1.7085,-1.7092,-1.7107,-1.7117,-1.7117,-1.7127,-1.714,-1.7151,-1.7167,-1.7179,-1.7204,-1.7208,-1.7221,-1.7219,-1.7237,-1.722,-1.7221,-1.7219,-1.7218,-1.722,-1.724,-1.724,-1.7241,-1.7241,0,-1.7086,-1.7088,-1.7102,-1.7118,-1.713,-1.7142,-1.7153,-1.7161,-1.7163,-1.7174,-1.7191,-1.72,-1.7219,-1.7234,-1.7247,-1.7252,-1.7247,-1.7246,-1.7251,-1.7252,-1.7251,-1.7252,-1.7197,-1.7245,-1.7245,-1.7244,-1.7244,-1.7244,-1.7114,-1.7128,-1.714,-1.7156,-1.7165,-1.7176,-1.7189,-1.7194,-1.7208,-1.7224,-1.7224,-1.7242,-1.7251,-1.7269,-1.7275,-1.7289,-1.7283,-1.7289,-1.7291,-1.7292,-1.7294,-1.7249,-1.7291,-1.7291,-1.7291,-1.7291,-1.7291,0,-1.7153,-1.7161,-1.7176,-1.7193,-1.7206,-1.7202,-1.7214,-1.7225,-1.7241,-1.7251,-1.7264,-1.7283,-1.7298,-1.7304,-1.7318,-1.7328,-1.7326,-1.7332,-1.7331,-1.7333,-1.7299,-1.7294,-1.7334,-1.7334,-1.7334,-1.7334,-1.7334,-1.7334,-1.7175,-1.7199,-1.7202,-1.7229,-1.7236,-1.7255,-1.7263,-1.7273,-1.7281,-1.7303,-1.7316,-1.732,-1.7328,-1.7343,-1.7357,-1.7358,-1.7364,-1.737,-1.7371,-1.7339,-1.7335,-1.7331,-1.7326,-1.7372,-1.7372,-1.7403,-1.7403,-1.7404]}]]